#�ϑ�����,���ϕ���,���ϕ���,�ő啗��,�ő啗����������,�ő�u�ԕ���,�ő�u�ԕ�����������
#(�N����),(m/s)   ,(16����),(m/s)   ,(16����)        ,(m/s)       ,(16����)            
2013/4/19 0:01,4.1,16,4.1,16,7.7,5
2013/4/19 0:02,4.3,16,4.3,16,7.6,1
2013/4/19 0:03,4.4,16,4.4,16,8.1,2
2013/4/19 0:04,4.5,16,4.5,16,9.8,2
2013/4/19 0:05,4.2,1,4.5,16,6.8,4
2013/4/19 0:06,3.8,1,4.2,16,3.3,5
2013/4/19 0:07,3.4,2,3.8,16,3.6,7
2013/4/19 0:08,3.2,2,3.4,16,4.9,6
2013/4/19 0:09,3.1,3,3.1,16,6.4,2
2013/4/19 0:10,3.2,3,3.2,16,6.5,1
2013/4/19 0:11,3,3,3.2,16,5,4
2013/4/19 0:12,2.7,3,2.9,16,5.7,5
2013/4/19 0:13,2.7,3,2.7,16,5.8,13
2013/4/19 0:14,2.6,3,2.7,16,5,14
2013/4/19 0:15,2.5,4,2.5,1,5.2,9
2013/4/19 0:16,2.6,4,2.6,1,4.8,9
2013/4/19 0:17,2.5,2,2.6,2,3.7,8
2013/4/19 0:18,2.6,15,2.6,3,4.2,10
2013/4/19 0:19,2.4,14,2.6,3,5.1,15
2013/4/19 0:20,2.4,14,2.4,3,6.5,16
2013/4/19 0:21,2.4,13,2.4,3,3.7,14
2013/4/19 0:22,2.4,13,2.4,3,4.2,15
2013/4/19 0:23,2.2,14,2.4,3,5,15
2013/4/19 0:24,2.1,14,2.2,4,4.8,13
2013/4/19 0:25,1.9,15,2.1,4,1.6,12
2013/4/19 0:26,1.8,14,1.9,4,1.8,10
2013/4/19 0:27,2,14,2,2,4.2,10
2013/4/19 0:28,1.8,15,2,15,1.9,15
2013/4/19 0:29,1.8,15,1.8,14,4.9,7
2013/4/19 0:30,1.7,15,1.8,14,5,7
2013/4/19 0:31,1.6,15,1.7,13,3,4
2013/4/19 0:32,1.7,16,1.7,14,7.1,1
2013/4/19 0:33,1.8,15,1.8,14,6.1,15
2013/4/19 0:34,1.9,16,1.9,14,6.4,1
2013/4/19 0:35,2.3,16,2.3,16,9.9,14
2013/4/19 0:36,2.8,16,2.8,16,8.3,15
2013/4/19 0:37,3.2,16,3.2,16,10.9,16
2013/4/19 0:38,3.7,16,3.7,16,11.1,14
2013/4/19 0:39,3.9,16,3.9,16,7.9,14
2013/4/19 0:40,4.1,16,4.1,16,6.2,16
2013/4/19 0:41,4.5,16,4.5,16,10,16
2013/4/19 0:42,4.6,16,4.6,16,9.5,16
2013/4/19 0:43,4.8,16,4.8,16,10.1,16
2013/4/19 0:44,4.9,16,4.9,16,6.9,14
2013/4/19 0:45,4.8,16,4.9,16,8.7,3
2013/4/19 0:46,4.7,16,4.8,16,7.5,16
2013/4/19 0:47,4.3,16,4.7,16,6,16
2013/4/19 0:48,4.1,16,4.3,16,7.7,16
2013/4/19 0:49,4.2,16,4.2,16,7.2,15
2013/4/19 0:50,4.6,16,4.6,16,16.8,15
2013/4/19 0:51,4.6,16,4.6,16,10.1,1
2013/4/19 0:52,5.1,16,5.1,16,16.3,16
2013/4/19 0:53,5.2,16,5.2,16,13.2,16
2013/4/19 0:54,5.8,16,5.8,16,14.3,16
2013/4/19 0:55,6.1,16,6.1,16,13.1,15
2013/4/19 0:56,6.2,16,6.2,16,13.3,16
2013/4/19 0:57,6.7,16,6.7,16,14.4,16
2013/4/19 0:58,7.1,16,7.1,16,10,16
2013/4/19 0:59,7.2,16,7.2,16,13.1,14
2013/4/19 1:00,7.2,16,7.2,16,14.5,16
2013/4/19 1:01,7.1,16,7.3,16,11.5,16
2013/4/19 1:02,7.2,16,7.4,16,17.4,16
2013/4/19 1:03,7.1,16,7.1,16,10,15
2013/4/19 1:04,6.8,16,7.1,16,12.7,16
2013/4/19 1:05,6.6,16,6.8,16,9.2,16
2013/4/19 1:06,6.5,16,6.5,16,9.2,15
2013/4/19 1:07,6.2,16,6.5,16,8.9,14
2013/4/19 1:08,6,16,6.2,16,12.1,15
2013/4/19 1:09,6.2,16,6.2,16,16.7,16
2013/4/19 1:10,6.4,16,6.4,16,13,14
2013/4/19 1:11,6.8,16,6.8,16,15.6,16
2013/4/19 1:12,6.5,16,6.7,16,13.1,16
2013/4/19 1:13,6.6,16,6.7,16,13,15
2013/4/19 1:14,6.1,16,6.5,16,6.5,16
2013/4/19 1:15,6.3,16,6.3,16,9,15
2013/4/19 1:16,6.3,16,6.3,16,9,16
2013/4/19 1:17,6.4,16,6.4,16,10.9,15
2013/4/19 1:18,6.4,15,6.5,16,10.1,14
2013/4/19 1:19,6.7,16,6.8,16,16.8,15
2013/4/19 1:20,6.6,15,6.8,16,14.1,15
2013/4/19 1:21,6.5,15,6.5,16,14.9,1
2013/4/19 1:22,6.4,15,6.5,16,12.4,15
2013/4/19 1:23,6.4,15,6.4,16,10.3,1
2013/4/19 1:24,6.7,15,6.7,16,13.3,15
2013/4/19 1:25,6.7,15,6.7,16,7.5,15
2013/4/19 1:26,6.9,16,6.9,15,12.3,1
2013/4/19 1:27,6.9,16,6.9,15,13.6,16
2013/4/19 1:28,6.9,16,7,16,9.2,1
2013/4/19 1:29,6.3,16,6.8,16,9.4,15
2013/4/19 1:30,5.9,16,6.2,16,8.4,15
2013/4/19 1:31,5.2,16,5.8,16,3.3,13
2013/4/19 1:32,4.9,15,5.2,16,5.5,14
2013/4/19 1:33,4.4,16,4.8,16,6.1,16
2013/4/19 1:34,4,16,4.4,16,3.2,14
2013/4/19 1:35,3.9,16,4,16,8.7,16
2013/4/19 1:36,3.6,16,3.9,16,8.7,16
2013/4/19 1:37,3.8,16,3.8,16,15.2,14
2013/4/19 1:38,4,16,4,16,17.4,1
2013/4/19 1:39,4.4,16,4.4,16,17.5,16
2013/4/19 1:40,4.5,16,4.5,16,8.1,16
2013/4/19 1:41,4.8,16,4.8,16,8.9,14
2013/4/19 1:42,4.9,16,4.9,16,7.2,1
2013/4/19 1:43,5.4,16,5.4,16,10.8,1
2013/4/19 1:44,5.8,16,5.8,16,10.7,16
2013/4/19 1:45,5.7,16,5.9,16,8.5,1
2013/4/19 1:46,5.9,16,5.9,16,8.7,2
2013/4/19 1:47,5.5,16,5.9,16,8.4,1
2013/4/19 1:48,5.3,16,5.5,16,8.6,2
2013/4/19 1:49,4.8,16,5.2,16,5.6,16
2013/4/19 1:50,4.9,16,4.9,16,13.2,16
2013/4/19 1:51,4.9,1,5,16,8.4,16
2013/4/19 1:52,5,1,5,16,6.8,2
2013/4/19 1:53,4.6,16,5,16,5.4,12
2013/4/19 1:54,4.5,16,4.6,16,9.8,16
2013/4/19 1:55,4.8,16,4.8,16,13.1,16
2013/4/19 1:56,4.5,16,4.8,16,6.9,15
2013/4/19 1:57,4.5,16,4.5,16,9.5,2
2013/4/19 1:58,4.5,16,4.6,16,6.4,2
2013/4/19 1:59,4.6,16,4.6,16,10,1
2013/4/19 2:00,4.1,16,4.6,16,3.7,14
2013/4/19 2:01,3.9,16,4.1,1,5.7,14
2013/4/19 2:02,3.9,16,3.9,1,6.8,1
2013/4/19 2:03,3.6,16,3.8,16,3,15
2013/4/19 2:04,3.3,16,3.7,16,2.7,11
2013/4/19 2:05,2.8,16,3.3,16,2.5,16
2013/4/19 2:06,2.8,16,2.8,16,6.3,6
2013/4/19 2:07,2.4,16,2.8,16,3.7,2
2013/4/19 2:08,2.3,16,2.4,16,5.5,11
2013/4/19 2:09,2.4,15,2.4,16,10,15
2013/4/19 2:10,2.6,16,2.6,16,11.5,15
2013/4/19 2:11,2.4,16,2.6,16,2,14
2013/4/19 2:12,2.3,16,2.4,16,3.9,16
2013/4/19 2:13,2.5,16,2.5,16,6.8,16
2013/4/19 2:14,2.6,16,2.6,16,4.4,16
2013/4/19 2:15,2.6,16,2.6,16,3.1,6
2013/4/19 2:16,2.5,16,2.6,16,3.3,16
2013/4/19 2:17,2.5,15,2.5,15,4.3,9
2013/4/19 2:18,2.4,16,2.5,15,4.2,4
2013/4/19 2:19,2.1,1,2.4,15,3,8
2013/4/19 2:20,1.8,16,2,16,3.6,13
2013/4/19 2:21,2.1,16,2.1,16,6,1
2013/4/19 2:22,2.1,16,2.1,16,6.1,11
2013/4/19 2:23,2,14,2.2,16,5.8,11
2013/4/19 2:24,2,13,2,16,3,12
2013/4/19 2:25,2.1,13,2.1,16,5.7,15
2013/4/19 2:26,2.1,13,2.1,16,6.1,12
2013/4/19 2:27,2.1,13,2.2,15,5.2,12
2013/4/19 2:28,2.1,13,2.2,16,4.2,12
2013/4/19 2:29,2.1,14,2.1,16,2.2,2
2013/4/19 2:30,2.4,14,2.4,14,7.6,3
2013/4/19 2:31,2.4,14,2.4,14,7.8,3
2013/4/19 2:32,2.3,15,2.4,14,3.8,5
2013/4/19 2:33,2.1,16,2.3,14,1.9,14
2013/4/19 2:34,2.2,1,2.2,14,4.8,13
2013/4/19 2:35,2.2,3,2.2,14,4.2,4
2013/4/19 2:36,2.1,3,2.3,14,2.5,3
2013/4/19 2:37,2,4,2.1,14,3.1,4
2013/4/19 2:38,2,3,2,14,3,4
2013/4/19 2:39,2,3,2.1,14,4.4,2
2013/4/19 2:40,1.8,3,2.1,14,3.8,3
2013/4/19 2:41,1.6,4,1.8,14,2.2,6
2013/4/19 2:42,1.5,3,1.6,15,4.4,2
2013/4/19 2:43,1.7,3,1.7,3,4.2,16
2013/4/19 2:44,1.7,3,1.8,3,4.2,2
2013/4/19 2:45,1.6,3,1.7,3,3,16
2013/4/19 2:46,1.7,2,1.7,4,8.5,2
2013/4/19 2:47,2,2,2,3,7.7,1
2013/4/19 2:48,2.2,2,2.2,2,6.8,3
2013/4/19 2:49,2.2,2,2.2,2,4.2,3
2013/4/19 2:50,2.2,2,2.2,2,4.4,3
2013/4/19 2:51,2.4,2,2.4,2,7.9,4
2013/4/19 2:52,2.6,2,2.6,2,5.5,13
2013/4/19 2:53,2.8,1,2.9,2,9.5,15
2013/4/19 2:54,2.9,1,2.9,2,6.1,1
2013/4/19 2:55,3.2,2,3.2,2,7,3
2013/4/19 2:56,3.3,2,3.3,2,5.4,6
2013/4/19 2:57,3.3,2,3.3,2,6.8,15
2013/4/19 2:58,3.2,2,3.3,2,6.7,16
2013/4/19 2:59,3.4,2,3.4,2,6.8,2
2013/4/19 3:00,3.6,2,3.6,2,10.1,3
2013/4/19 3:01,3.6,2,3.6,2,6.4,12
2013/4/19 3:02,3.5,2,3.6,2,8.5,12
2013/4/19 3:03,3.3,2,3.5,2,4.8,16
2013/4/19 3:04,3.5,1,3.5,2,8.6,1
2013/4/19 3:05,3.5,1,3.6,2,8.4,16
2013/4/19 3:06,3.5,16,3.6,2,5.4,16
2013/4/19 3:07,3.6,16,3.6,2,6.1,14
2013/4/19 3:08,3.3,16,3.5,2,2.5,8
2013/4/19 3:09,3.1,15,3.3,2,7.4,16
2013/4/19 3:10,3.6,15,3.6,2,15.1,16
2013/4/19 3:11,3.8,15,3.9,15,10.2,14
2013/4/19 3:12,4.1,16,4.1,15,12.4,15
2013/4/19 3:13,4.3,16,4.3,16,8.7,16
2013/4/19 3:14,4.2,16,4.4,16,7.8,15
2013/4/19 3:15,3.9,16,4.2,16,5.6,15
2013/4/19 3:16,4,16,4,16,6.9,16
2013/4/19 3:17,4,16,4,16,6.9,15
2013/4/19 3:18,4.2,16,4.2,16,4.9,16
2013/4/19 3:19,4.4,16,4.5,16,7.2,16
2013/4/19 3:20,3.9,16,4.4,16,5,1
2013/4/19 3:21,3.7,16,3.9,16,6.8,2
2013/4/19 3:22,3.2,16,3.7,16,5.2,13
2013/4/19 3:23,3,16,3.2,16,4.1,9
2013/4/19 3:24,2.8,16,3,16,2.9,15
2013/4/19 3:25,2.8,15,2.8,16,6.5,15
2013/4/19 3:26,2.9,15,2.9,16,6.9,14
2013/4/19 3:27,2.7,16,2.8,16,3.8,4
2013/4/19 3:28,2.9,16,2.9,16,5.5,3
2013/4/19 3:29,2.8,16,2.8,16,8.4,15
2013/4/19 3:30,2.9,16,2.9,16,7.8,16
2013/4/19 3:31,3.1,15,3.1,16,7.8,13
2013/4/19 3:32,3.4,16,3.4,16,9,3
2013/4/19 3:33,3.4,16,3.4,16,3.7,1
2013/4/19 3:34,3.3,16,3.4,16,3,14
2013/4/19 3:35,3.6,16,3.6,16,9.8,16
2013/4/19 3:36,3.7,1,3.7,16,9.4,15
2013/4/19 3:37,4,16,4,16,11,16
2013/4/19 3:38,4.2,16,4.2,16,9.9,1
2013/4/19 3:39,4.1,16,4.3,16,5.1,16
2013/4/19 3:40,4,16,4.1,16,8.4,1
2013/4/19 3:41,3.9,16,4,16,7.7,16
2013/4/19 3:42,3.8,16,3.9,16,6.1,15
2013/4/19 3:43,4,16,4,16,8.1,15
2013/4/19 3:44,4.2,16,4.2,16,7.8,15
2013/4/19 3:45,4.2,16,4.3,16,10.2,14
2013/4/19 3:46,4.5,16,4.5,16,12.8,1
2013/4/19 3:47,4.4,16,4.6,16,11.9,15
2013/4/19 3:48,4.2,15,4.4,16,11.8,14
2013/4/19 3:49,4.5,15,4.5,16,10.7,16
2013/4/19 3:50,4.8,15,4.8,15,12.1,16
2013/4/19 3:51,4.8,15,4.8,15,6.4,1
2013/4/19 3:52,4.8,16,4.8,15,7.5,15
2013/4/19 3:53,4.9,16,4.9,16,13.4,15
2013/4/19 3:54,5.1,16,5.1,16,7.4,15
2013/4/19 3:55,4.9,16,5.1,16,7.8,15
2013/4/19 3:56,4.7,16,4.9,16,14.7,15
2013/4/19 3:57,5.1,16,5.1,16,17.1,15
2013/4/19 3:58,5.3,16,5.3,16,15.1,14
2013/4/19 3:59,5.6,16,5.6,16,14.8,15
2013/4/19 4:00,5.7,16,5.7,16,12.6,16
2013/4/19 4:01,6,16,6,16,10.6,16
2013/4/19 4:02,6.1,16,6.1,16,11.3,14
2013/4/19 4:03,5.9,16,6.1,16,6.9,14
2013/4/19 4:04,5.7,16,5.9,16,5.1,16
2013/4/19 4:05,5.8,16,5.8,16,6.9,16
2013/4/19 4:06,5.6,16,5.8,16,8.5,15
2013/4/19 4:07,5.3,16,5.6,16,13,15
2013/4/19 4:08,5.2,16,5.4,16,11.1,15
2013/4/19 4:09,5,16,5.2,16,9.5,16
2013/4/19 4:10,4.7,16,5,16,7.7,14
2013/4/19 4:11,4.3,16,4.7,16,7.1,14
2013/4/19 4:12,4,16,4.2,16,4.7,12
2013/4/19 4:13,3.9,16,4,16,6.5,1
2013/4/19 4:14,4,16,4,16,8.2,16
2013/4/19 4:15,4.1,16,4.1,16,8.5,3
2013/4/19 4:16,4.5,16,4.5,16,11.7,16
2013/4/19 4:17,4.6,16,4.8,16,14.2,16
2013/4/19 4:18,4.8,1,4.8,16,13.3,16
2013/4/19 4:19,4.9,1,4.9,16,12.7,1
2013/4/19 4:20,5.1,1,5.1,1,9.8,16
2013/4/19 4:21,5.4,16,5.4,16,10.5,16
2013/4/19 4:22,5.8,16,5.8,16,9.9,14
2013/4/19 4:23,5.9,16,5.9,16,8.3,16
2013/4/19 4:24,5.8,16,5.9,16,7.7,16
2013/4/19 4:25,5.5,16,5.9,16,5.1,15
2013/4/19 4:26,5.1,16,5.5,16,9.5,11
2013/4/19 4:27,5,16,5.1,16,8.2,15
2013/4/19 4:28,4.7,16,5,16,7.9,1
2013/4/19 4:29,4.6,16,4.7,16,11.7,15
2013/4/19 4:30,4.8,16,4.8,16,17.6,1
2013/4/19 4:31,4.8,16,4.9,16,13.5,1
2013/4/19 4:32,4.9,16,4.9,16,10.9,16
2013/4/19 4:33,5.1,16,5.2,16,10.5,1
2013/4/19 4:34,5.7,16,5.7,16,17.8,16
2013/4/19 4:35,6.4,16,6.4,16,16.7,16
2013/4/19 4:36,6.8,16,6.8,16,16.6,16
2013/4/19 4:37,6.9,16,7,16,10.5,15
2013/4/19 4:38,6.8,16,6.8,16,10.2,15
2013/4/19 4:39,6.8,16,6.9,16,16.9,1
2013/4/19 4:40,6.9,16,7,16,16,15
2013/4/19 4:41,7.6,16,7.6,16,18.5,16
2013/4/19 4:42,7.5,16,7.8,16,13.1,2
2013/4/19 4:43,7.7,16,7.7,16,12.7,16
2013/4/19 4:44,7.4,16,7.8,16,11,1
2013/4/19 4:45,7.1,16,7.3,16,12.3,16
2013/4/19 4:46,6.7,16,6.9,16,13.8,15
2013/4/19 4:47,6.6,16,6.7,16,9.9,16
2013/4/19 4:48,6.7,16,6.8,16,10.2,1
2013/4/19 4:49,7.1,16,7.2,16,16.2,1
2013/4/19 4:50,7.3,16,7.3,16,20.3,16
2013/4/19 4:51,7,16,7.2,16,17.9,16
2013/4/19 4:52,7.3,16,7.3,16,15.2,16
2013/4/19 4:53,7.4,16,7.4,16,15.3,15
2013/4/19 4:54,7.7,16,7.7,16,17.6,16
2013/4/19 4:55,8.2,16,8.2,16,18.8,16
2013/4/19 4:56,8.8,16,8.8,16,17.1,1
2013/4/19 4:57,9.1,16,9.1,16,15.7,14
2013/4/19 4:58,9.9,16,10,16,18.5,16
2013/4/19 4:59,9.8,16,9.8,16,17.8,16
2013/4/19 5:00,9.7,16,9.8,16,20.5,1
2013/4/19 5:01,9.8,16,9.8,16,19.4,1
2013/4/19 5:02,10,16,10,16,17.6,16
2013/4/19 5:03,10.1,16,10.2,16,15.1,15
2013/4/19 5:04,9.9,16,10.1,16,13.2,15
2013/4/19 5:05,9.8,16,10,16,14.8,16
2013/4/19 5:06,10,16,10.1,16,21,16
2013/4/19 5:07,10.1,16,10.1,16,14.8,15
2013/4/19 5:08,10.1,16,10.1,16,19.4,16
2013/4/19 5:09,10,16,10.1,16,15.2,15
2013/4/19 5:10,9.6,16,9.9,16,13,2
2013/4/19 5:11,9.4,16,9.6,16,16.1,1
2013/4/19 5:12,9.2,16,9.5,16,12.7,15
2013/4/19 5:13,9.5,16,9.5,16,16.9,14
2013/4/19 5:14,10,16,10,16,19.6,16
2013/4/19 5:15,10.2,16,10.2,16,18.4,16
2013/4/19 5:16,9.8,16,10.2,16,15,15
2013/4/19 5:17,9.7,16,9.8,16,14,16
2013/4/19 5:18,9.5,16,9.7,16,17.2,1
2013/4/19 5:19,9.4,16,9.6,16,13.3,16
2013/4/19 5:20,9.6,16,9.6,16,11.1,16
2013/4/19 5:21,9.5,16,9.7,16,16.6,16
2013/4/19 5:22,9.7,16,9.7,16,21.4,16
2013/4/19 5:23,9.4,16,9.7,16,15.7,16
2013/4/19 5:24,9.1,16,9.4,16,15.8,16
2013/4/19 5:25,8.8,16,9.2,16,16,16
2013/4/19 5:26,8.6,16,8.8,16,10.7,15
2013/4/19 5:27,8.4,16,8.6,16,13,16
2013/4/19 5:28,8.5,16,8.6,16,17.8,15
2013/4/19 5:29,8.8,16,8.8,16,17.6,16
2013/4/19 5:30,9.3,16,9.3,16,18.6,16
2013/4/19 5:31,9.1,16,9.3,16,10.2,14
2013/4/19 5:32,8.5,16,9.1,16,10.5,1
2013/4/19 5:33,8.3,16,8.5,16,12.6,16
2013/4/19 5:34,8.3,16,8.4,16,17.7,16
2013/4/19 5:35,8,16,8.2,16,10.2,15
2013/4/19 5:36,7.8,16,8,16,8.3,16
2013/4/19 5:37,7.6,16,7.8,16,9.8,16
2013/4/19 5:38,7,16,7.5,16,7.4,15
2013/4/19 5:39,6.4,16,6.9,16,13.2,16
2013/4/19 5:40,6.2,16,6.4,16,14.4,1
2013/4/19 5:41,6.2,16,6.3,16,12.5,16
2013/4/19 5:42,6.4,16,6.4,16,10.8,14
2013/4/19 5:43,6.4,16,6.4,16,9.9,15
2013/4/19 5:44,6,16,6.4,16,9.4,14
2013/4/19 5:45,6,16,6.1,16,13.1,16
2013/4/19 5:46,6.1,16,6.1,16,8.9,15
2013/4/19 5:47,6.4,16,6.4,16,14,15
2013/4/19 5:48,6.4,16,6.5,16,8.4,15
2013/4/19 5:49,6.7,16,6.7,16,13.4,15
2013/4/19 5:50,6.2,15,6.6,16,9.9,16
2013/4/19 5:51,6.2,15,6.3,16,16.8,15
2013/4/19 5:52,6.3,15,6.3,16,14.3,15
2013/4/19 5:53,6.2,15,6.3,16,9.9,16
2013/4/19 5:54,6.3,15,6.4,16,13.9,15
2013/4/19 5:55,6.2,15,6.3,16,7.4,15
2013/4/19 5:56,6.2,15,6.3,16,12.5,16
2013/4/19 5:57,6.2,15,6.3,16,11.4,15
2013/4/19 5:58,6.2,15,6.3,16,10.3,15
2013/4/19 5:59,5.7,15,6.2,16,4.1,3
2013/4/19 6:00,5.4,15,5.7,15,5.1,16
2013/4/19 6:01,5.3,15,5.4,15,8.6,15
2013/4/19 6:02,4.9,15,5.2,15,8.5,16
2013/4/19 6:03,5.1,15,5.1,15,12.8,15
2013/4/19 6:04,5.6,15,5.6,15,17.5,15
2013/4/19 6:05,5.7,16,5.7,15,10.9,16
2013/4/19 6:06,5.9,16,5.9,15,19.3,16
2013/4/19 6:07,5.5,16,5.9,15,10.6,16
2013/4/19 6:08,5.6,16,5.6,15,11,16
2013/4/19 6:09,6,15,6,15,9.9,15
2013/4/19 6:10,6.3,15,6.3,15,9.8,15
2013/4/19 6:11,6.3,15,6.4,15,8.6,14
2013/4/19 6:12,6.2,15,6.3,15,7.9,1
2013/4/19 6:13,5.9,15,6.2,15,6.7,1
2013/4/19 6:14,5,15,5.8,15,4.1,15
2013/4/19 6:15,5,15,5,15,12.5,14
2013/4/19 6:16,4.8,15,5.1,15,10.6,15
2013/4/19 6:17,4.9,15,4.9,15,13.1,16
2013/4/19 6:18,4.9,15,5,15,11,16
2013/4/19 6:19,5,15,5,15,12.7,15
2013/4/19 6:20,5,15,5.1,15,10.7,15
2013/4/19 6:21,4.7,16,4.9,15,7,1
2013/4/19 6:22,4.6,16,4.8,15,3.2,16
2013/4/19 6:23,4.4,16,4.6,15,4.5,2
2013/4/19 6:24,4.6,16,4.6,15,5.5,15
2013/4/19 6:25,4.3,16,4.6,15,4.9,16
2013/4/19 6:26,3.9,16,4.2,15,4.2,16
2013/4/19 6:27,3.6,16,3.9,15,8.6,15
2013/4/19 6:28,3.6,16,3.6,15,9.1,14
2013/4/19 6:29,3.5,16,3.7,15,11.9,15
2013/4/19 6:30,3.5,16,3.6,15,11.1,16
2013/4/19 6:31,3.5,16,3.5,16,6.8,16
2013/4/19 6:32,3.7,16,3.7,16,7.7,14
2013/4/19 6:33,3.8,15,3.8,16,4.8,12
2013/4/19 6:34,3.8,15,3.8,16,5.8,11
2013/4/19 6:35,3.7,15,3.8,16,3.2,14
2013/4/19 6:36,3.8,15,3.8,16,7.5,13
2013/4/19 6:37,4,15,4,15,10.8,15
2013/4/19 6:38,4.1,15,4.2,15,11.8,16
2013/4/19 6:39,4.3,15,4.3,15,12.5,15
2013/4/19 6:40,4.4,14,4.4,14,9.9,14
2013/4/19 6:41,4.6,14,4.7,14,10,15
2013/4/19 6:42,4.7,14,4.7,14,11.5,16
2013/4/19 6:43,4.8,15,4.8,15,7.2,16
2013/4/19 6:44,5.3,15,5.3,15,14.4,15
2013/4/19 6:45,5.6,15,5.6,15,9.3,14
2013/4/19 6:46,5.5,15,5.6,15,4.4,13
2013/4/19 6:47,5.2,15,5.5,15,3.5,15
2013/4/19 6:48,5.1,15,5.1,15,9.9,14
2013/4/19 6:49,4.9,15,5.1,15,9,15
2013/4/19 6:50,4.8,15,4.9,15,12.8,15
2013/4/19 6:51,4.4,14,4.7,15,6.1,16
2013/4/19 6:52,4,15,4.4,15,2.2,16
2013/4/19 6:53,3.8,14,4,15,3.7,12
2013/4/19 6:54,3.3,14,3.7,15,6.5,13
2013/4/19 6:55,2.9,14,3.2,15,3.9,11
2013/4/19 6:56,2.9,14,2.9,15,3.9,12
2013/4/19 6:57,2.9,13,3,15,3.6,12
2013/4/19 6:58,2.7,13,2.9,15,5.8,9
2013/4/19 6:59,2.4,12,2.6,15,6.4,8
2013/4/19 7:00,2,11,2.4,15,1.9,13
2013/4/19 7:01,1.9,11,2,14,2.6,14
2013/4/19 7:02,2,12,2,15,4.2,15
2013/4/19 7:03,2,11,2,14,3.9,8
2013/4/19 7:04,1.9,11,2,14,4.1,14
2013/4/19 7:05,2.2,12,2.2,14,8.3,13
2013/4/19 7:06,2.2,12,2.3,14,8.4,1
2013/4/19 7:07,2.7,12,2.7,13,11.4,14
2013/4/19 7:08,2.9,13,2.9,12,6.5,12
2013/4/19 7:09,2.8,14,2.9,12,3.8,15
2013/4/19 7:10,3.1,14,3.1,14,5.7,15
2013/4/19 7:11,3.1,14,3.1,14,4.3,16
2013/4/19 7:12,3.3,14,3.3,14,7.8,15
2013/4/19 7:13,3.4,14,3.4,14,6.1,14
2013/4/19 7:14,3.5,14,3.5,14,4.4,13
2013/4/19 7:15,3.4,15,3.5,14,7.1,16
2013/4/19 7:16,3.4,15,3.5,14,6.7,16
2013/4/19 7:17,3.2,15,3.4,14,7.5,14
2013/4/19 7:18,2.9,15,3.1,14,4.1,15
2013/4/19 7:19,3,15,3,14,6,14
2013/4/19 7:20,2.8,15,3,14,3.2,15
2013/4/19 7:21,2.8,14,2.8,14,2.4,9
2013/4/19 7:22,2.5,14,2.7,14,3,14
2013/4/19 7:23,2.4,14,2.5,14,1.9,13
2013/4/19 7:24,2.3,13,2.4,14,3.8,9
2013/4/19 7:25,2.1,13,2.2,15,2.7,11
2013/4/19 7:26,1.8,13,2.1,15,1.1,8
2013/4/19 7:27,1.5,13,1.8,15,1.5,11
2013/4/19 7:28,1.4,13,1.5,15,1.4,15
2013/4/19 7:29,1.4,13,1.4,15,4.9,16
2013/4/19 7:30,1.3,13,1.4,15,1.6,14
2013/4/19 7:31,1.3,13,1.3,14,3.6,2
2013/4/19 7:32,1.4,14,1.5,14,3.9,15
2013/4/19 7:33,1.5,15,1.5,14,4.1,1
2013/4/19 7:34,1.5,16,1.5,13,3.6,3
2013/4/19 7:35,1.4,16,1.5,13,2.2,9
2013/4/19 7:36,1.5,16,1.5,13,4.7,8
2013/4/19 7:37,1.6,1,1.6,1,3.9,11
2013/4/19 7:38,1.9,1,1.9,1,5.8,16
2013/4/19 7:39,1.8,1,1.9,1,5.5,15
2013/4/19 7:40,2,1,2,1,5,14
2013/4/19 7:41,2,1,2,1,3,5
2013/4/19 7:42,2.3,1,2.3,1,7.6,14
2013/4/19 7:43,2.6,16,2.6,1,9.7,16
2013/4/19 7:44,2.7,15,2.7,16,5.2,15
2013/4/19 7:45,3,15,3,15,6.2,12
2013/4/19 7:46,3,15,3,15,3.8,12
2013/4/19 7:47,3,15,3.1,15,5.8,10
2013/4/19 7:48,3,14,3.1,15,5,15
2013/4/19 7:49,3.2,14,3.2,14,7.4,14
2013/4/19 7:50,3.4,14,3.4,14,9.4,16
2013/4/19 7:51,3.8,14,3.8,14,10,15
2013/4/19 7:52,3.7,14,3.9,14,8.6,15
2013/4/19 7:53,3.8,14,3.8,14,13.6,16
2013/4/19 7:54,4.2,14,4.2,14,12.2,15
2013/4/19 7:55,4.3,15,4.3,14,8.7,16
2013/4/19 7:56,4.9,15,4.9,15,11.1,15
2013/4/19 7:57,5.1,15,5.1,15,9,16
2013/4/19 7:58,5.3,15,5.3,15,9.4,15
2013/4/19 7:59,5.1,15,5.3,15,4.4,15
2013/4/19 8:00,5.2,15,5.2,15,10,16
2013/4/19 8:01,5,15,5.1,15,5.5,14
2013/4/19 8:02,4.9,15,5,15,7.1,15
2013/4/19 8:03,4.8,15,5,15,7.5,15
2013/4/19 8:04,4.4,15,4.8,15,7.6,16
2013/4/19 8:05,4.6,15,4.6,15,10.2,16
2013/4/19 8:06,4.6,15,4.7,15,10.2,15
2013/4/19 8:07,4.7,15,4.7,15,9.4,16
2013/4/19 8:08,4.7,15,4.8,15,9.7,15
2013/4/19 8:09,5.1,15,5.1,15,13.6,15
2013/4/19 8:10,5.3,15,5.3,15,14.3,16
2013/4/19 8:11,5.4,15,5.4,15,7.1,13
2013/4/19 8:12,5.6,15,5.6,15,7.9,16
2013/4/19 8:13,5.6,15,5.7,15,10.7,16
2013/4/19 8:14,5.7,15,5.7,15,6.8,16
2013/4/19 8:15,5.2,15,5.6,15,4.2,16
2013/4/19 8:16,4.6,15,5.1,15,1.9,11
2013/4/19 8:17,4.1,15,4.6,15,2.2,15
2013/4/19 8:18,3.9,15,4,15,8.9,16
2013/4/19 8:19,3.9,15,4,15,11.5,16
2013/4/19 8:20,3.8,15,3.9,15,9.8,14
2013/4/19 8:21,3.8,15,3.8,15,10.8,16
2013/4/19 8:22,3.5,15,3.8,15,9.8,14
2013/4/19 8:23,3.5,15,3.5,15,7.5,16
2013/4/19 8:24,3.7,15,3.7,15,9.7,14
2013/4/19 8:25,4,15,4,15,9.8,15
2013/4/19 8:26,4.3,15,4.3,15,4.7,13
2013/4/19 8:27,4.7,15,4.7,15,7.5,16
2013/4/19 8:28,4.8,15,4.9,15,7.8,16
2013/4/19 8:29,4.6,15,4.8,15,6.1,1
2013/4/19 8:30,4.1,15,4.6,15,3,5
2013/4/19 8:31,3.7,14,4,15,1.9,9
2013/4/19 8:32,3.7,14,3.7,15,6.2,12
2013/4/19 8:33,3.5,14,3.7,15,4.7,12
2013/4/19 8:34,3.4,14,3.5,15,7.9,12
2013/4/19 8:35,3.2,14,3.4,15,9.3,15
2013/4/19 8:36,3.1,14,3.2,15,4.9,16
2013/4/19 8:37,2.9,14,3.1,15,5.8,16
2013/4/19 8:38,2.8,14,2.8,15,7.5,2
2013/4/19 8:39,2.8,15,2.8,15,5.4,4
2013/4/19 8:40,2.9,16,2.9,15,3.5,4
2013/4/19 8:41,2.9,1,2.9,14,3.5,3
2013/4/19 8:42,2.8,2,2.9,14,2,5
2013/4/19 8:43,2.7,2,2.8,14,4.5,15
2013/4/19 8:44,2.4,3,2.7,14,4.4,9
2013/4/19 8:45,2.2,4,2.3,14,3,8
2013/4/19 8:46,2.4,4,2.4,14,9.2,15
2013/4/19 8:47,2.3,4,2.4,16,7.4,15
2013/4/19 8:48,2.2,3,2.4,16,4.2,16
2013/4/19 8:49,1.9,2,2.2,16,2.6,16
2013/4/19 8:50,2,16,2,16,4.2,16
2013/4/19 8:51,2,15,2,1,3.2,13
2013/4/19 8:52,2.2,15,2.2,2,9.2,1
2013/4/19 8:53,2.8,16,2.8,16,11.9,15
2013/4/19 8:54,3,15,3,15,10.9,14
2013/4/19 8:55,3,15,3,15,3.2,12
2013/4/19 8:56,2.9,15,3,15,8.2,15
2013/4/19 8:57,3.2,15,3.2,15,10.5,13
2013/4/19 8:58,3.5,15,3.5,15,9.2,15
2013/4/19 8:59,4.1,15,4.1,15,11.9,14
2013/4/19 9:00,4.4,15,4.4,15,9.8,15
2013/4/19 9:01,4.5,15,4.5,15,5.1,13
2013/4/19 9:02,4.7,15,4.7,15,10.6,15
2013/4/19 9:03,4.4,15,4.8,14,8.7,15
2013/4/19 9:04,4.5,15,4.5,14,8.7,16
2013/4/19 9:05,4.8,15,4.8,14,8.7,15
2013/4/19 9:06,4.7,15,4.9,15,4.8,1
2013/4/19 9:07,4.5,15,4.7,15,5.4,15
2013/4/19 9:08,4.6,15,4.6,15,10.6,15
2013/4/19 9:09,4.3,15,4.5,15,8.7,15
2013/4/19 9:10,4.2,15,4.2,15,7.8,16
2013/4/19 9:11,4.4,15,4.4,15,8.5,15
2013/4/19 9:12,4.2,16,4.5,15,7.5,1
2013/4/19 9:13,4,16,4.2,15,4.9,5
2013/4/19 9:14,3.8,1,3.9,15,3.9,5
2013/4/19 9:15,3.7,1,3.8,15,7.5,11
2013/4/19 9:16,3.8,16,3.8,15,7.1,13
2013/4/19 9:17,3.8,16,3.9,15,4.3,14
2013/4/19 9:18,3.4,16,3.8,15,4.2,13
2013/4/19 9:19,3.5,16,3.5,16,11,15
2013/4/19 9:20,3.5,15,3.5,16,7,11
2013/4/19 9:21,3.2,15,3.4,16,5.4,16
2013/4/19 9:22,2.9,14,3.1,16,4.3,3
2013/4/19 9:23,2.8,15,2.9,16,5.5,1
2013/4/19 9:24,2.8,15,2.8,16,4.8,1
2013/4/19 9:25,2.8,15,2.8,16,5.1,1
2013/4/19 9:26,2.5,16,2.7,16,2,15
2013/4/19 9:27,2.4,16,2.5,16,2.5,1
2013/4/19 9:28,2.4,16,2.4,16,3.8,3
2013/4/19 9:29,2,1,2.3,16,3.1,4
2013/4/19 9:30,1.7,2,2,15,3.1,6
2013/4/19 9:31,1.8,2,1.8,15,5.6,14
2013/4/19 9:32,1.8,1,1.8,15,5.8,12
2013/4/19 9:33,2,1,2,15,6.3,15
2013/4/19 9:34,2.2,1,2.2,15,9.8,15
2013/4/19 9:35,2.3,16,2.3,15,7.1,16
2013/4/19 9:36,2.9,16,2.9,16,10.2,16
2013/4/19 9:37,3.2,16,3.2,16,7.2,15
2013/4/19 9:38,3,16,3.1,16,1.4,3
2013/4/19 9:39,3,15,3,16,2.2,16
2013/4/19 9:40,3.2,15,3.2,16,7.2,14
2013/4/19 9:41,3.4,15,3.4,15,8.7,14
2013/4/19 9:42,3.4,16,3.5,15,5.2,2
2013/4/19 9:43,3.4,16,3.4,15,10.3,16
2013/4/19 9:44,3.4,16,3.6,16,6.4,14
2013/4/19 9:45,3.3,16,3.4,16,4.4,15
2013/4/19 9:46,3.3,16,3.3,16,12.3,14
2013/4/19 9:47,3.4,16,3.4,16,9.2,14
2013/4/19 9:48,3.4,16,3.4,16,2.5,13
2013/4/19 9:49,3.5,16,3.5,16,3.2,15
2013/4/19 9:50,3.4,16,3.5,16,6.8,15
2013/4/19 9:51,3.4,15,3.4,16,7.2,15
2013/4/19 9:52,3.7,15,3.7,15,10,16
2013/4/19 9:53,3.8,15,3.8,15,9.9,15
2013/4/19 9:54,3.7,15,3.8,15,5.8,16
2013/4/19 9:55,4,15,4,15,9.1,14
2013/4/19 9:56,3.7,15,4,15,8.6,15
2013/4/19 9:57,3.3,15,3.6,15,6.7,14
2013/4/19 9:58,3.5,16,3.5,15,6,16
2013/4/19 9:59,3.5,16,3.6,15,2.5,9
2013/4/19 10:00,3.5,16,3.5,15,4.9,9
2013/4/19 10:01,3.3,15,3.5,15,5,9
2013/4/19 10:02,3.1,14,3.2,15,6,12
2013/4/19 10:03,2.7,14,3,15,6.4,11
2013/4/19 10:04,3,15,3,15,9.2,16
2013/4/19 10:05,2.8,15,3.1,15,8.1,16
2013/4/19 10:06,2.6,13,2.8,15,2.9,8
2013/4/19 10:07,2.6,11,2.7,16,3.3,7
2013/4/19 10:08,2.3,10,2.5,16,1.1,8
2013/4/19 10:09,2.3,11,2.3,16,1.6,9
2013/4/19 10:10,2.2,10,2.3,16,3,5
2013/4/19 10:11,2.2,9,2.2,15,6.3,13
2013/4/19 10:12,2.2,14,2.2,15,6.8,15
2013/4/19 10:13,2.2,16,2.3,15,5.8,13
2013/4/19 10:14,2,14,2.2,15,10.5,1
2013/4/19 10:15,2.1,12,2.1,15,7.7,15
2013/4/19 10:16,2.4,14,2.4,11,10.3,1
2013/4/19 10:17,2.8,15,2.8,15,12.3,14
2013/4/19 10:18,3.3,15,3.3,15,9,16
2013/4/19 10:19,3.5,15,3.5,15,8.1,15
2013/4/19 10:20,3.6,16,3.6,16,3.8,3
2013/4/19 10:21,3.8,16,3.8,16,10,3
2013/4/19 10:22,4,1,4.1,1,11.3,2
2013/4/19 10:23,4.2,1,4.2,1,9.4,1
2013/4/19 10:24,4.5,1,4.5,1,12.2,1
2013/4/19 10:25,4.5,2,4.6,1,11.8,16
2013/4/19 10:26,4.4,2,4.6,1,6.1,2
2013/4/19 10:27,4.1,2,4.4,1,6,4
2013/4/19 10:28,3.9,3,4.1,1,5.2,5
2013/4/19 10:29,4.1,2,4.1,1,7.9,3
2013/4/19 10:30,4,2,4.1,1,6.4,2
2013/4/19 10:31,4,2,4.1,1,6.1,1
2013/4/19 10:32,4.3,1,4.3,1,16.3,14
2013/4/19 10:33,4.7,1,4.7,1,15.4,15
2013/4/19 10:34,4.4,1,4.6,1,8.4,14
2013/4/19 10:35,4.4,1,4.4,1,9.4,16
2013/4/19 10:36,4.7,16,4.7,1,9.4,15
2013/4/19 10:37,5.2,16,5.2,16,10.6,3
2013/4/19 10:38,5.3,16,5.3,16,10.9,3
2013/4/19 10:39,5.1,15,5.4,16,8.5,14
2013/4/19 10:40,5.3,15,5.4,16,9.3,15
2013/4/19 10:41,5.2,15,5.3,16,6.7,14
2013/4/19 10:42,4.5,15,5.2,16,5.7,14
2013/4/19 10:43,3.9,15,4.4,16,3.8,14
2013/4/19 10:44,4.2,16,4.2,16,10.8,1
2013/4/19 10:45,4.2,16,4.2,16,9.7,15
2013/4/19 10:46,4,16,4.3,16,8.1,15
2013/4/19 10:47,4,15,4.1,16,13.4,15
2013/4/19 10:48,4.5,15,4.5,16,14.3,16
2013/4/19 10:49,4.8,16,4.8,15,11.1,16
2013/4/19 10:50,4.8,16,4.9,15,9.5,4
2013/4/19 10:51,4.9,16,4.9,15,7.1,16
2013/4/19 10:52,4.9,16,4.9,16,7.4,15
2013/4/19 10:53,5.2,16,5.2,16,8.4,15
2013/4/19 10:54,5.3,15,5.3,16,12.1,14
2013/4/19 10:55,5.1,15,5.3,16,5.8,15
2013/4/19 10:56,4.8,15,5,16,3,12